TimeMST,TemperatureF,Dew PointF,Humidity,Sea Level PressureIn,VisibilityMPH,Wind Direction,Wind SpeedMPH,Gust SpeedMPH,PrecipitationIn,Events,Conditions,WindDirDegrees,DateUTC
12:53 AM,39.9,19.0,43,29.76,10.0,WNW,12.7,18.4,N/A,,Clear,300,2013-02-06 07:53:00
1:53 AM,41.0,19.9,43,29.77,10.0,WNW,12.7,-,N/A,,Clear,300,2013-02-06 08:53:00
2:53 AM,42.1,19.9,41,29.77,10.0,West,17.3,-,N/A,,Partly Cloudy,280,2013-02-06 09:53:00
3:53 AM,41.0,21.9,47,29.75,10.0,WNW,16.1,24.2,N/A,,Clear,290,2013-02-06 10:53:00
4:53 AM,42.1,21.0,43,29.73,10.0,West,12.7,-,N/A,,Clear,280,2013-02-06 11:53:00
5:53 AM,39.9,19.9,45,29.76,10.0,WNW,12.7,-,N/A,,Clear,290,2013-02-06 12:53:00
6:53 AM,37.9,19.0,47,29.79,10.0,West,10.4,-,N/A,,Clear,260,2013-02-06 13:53:00
7:53 AM,39.9,19.9,45,29.81,10.0,WNW,12.7,20.7,N/A,,Clear,300,2013-02-06 14:53:00
8:53 AM,39.9,19.9,45,29.81,10.0,West,16.1,25.3,N/A,,Clear,270,2013-02-06 15:53:00
9:53 AM,41.0,19.0,41,29.84,10.0,West,16.1,-,N/A,,Scattered Clouds,280,2013-02-06 16:53:00
10:53 AM,46.0,19.0,34,29.81,10.0,West,12.7,-,N/A,,Overcast,270,2013-02-06 17:53:00
11:53 AM,46.9,14.0,27,29.80,10.0,West,15.0,-,N/A,,Overcast,280,2013-02-06 18:53:00
12:53 PM,46.9,14.0,27,29.76,10.0,NW,16.1,23.0,N/A,,Overcast,310,2013-02-06 19:53:00
1:53 PM,46.0,12.9,26,29.76,10.0,WNW,18.4,23.0,N/A,,Overcast,290,2013-02-06 20:53:00
2:53 PM,46.0,12.9,26,29.78,10.0,NW,16.1,29.9,N/A,,Overcast,310,2013-02-06 21:53:00
3:53 PM,43.0,15.1,32,29.82,10.0,NW,20.7,29.9,N/A,,Overcast,310,2013-02-06 22:53:00
4:53 PM,41.0,9.0,27,29.84,10.0,NW,19.6,27.6,N/A,,Overcast,320,2013-02-06 23:53:00
5:53 PM,37.9,10.0,32,29.89,10.0,NW,10.4,-,N/A,,Partly Cloudy,320,2013-02-07 00:53:00
6:53 PM,36.0,12.0,37,29.95,10.0,North,10.4,-,N/A,,Overcast,350,2013-02-07 01:53:00
7:53 PM,36.0,14.0,41,29.96,10.0,North,10.4,-,N/A,,Overcast,360,2013-02-07 02:53:00
8:53 PM,33.1,18.0,54,30.01,10.0,North,9.2,-,N/A,,Scattered Clouds,10,2013-02-07 03:53:00
9:53 PM,28.9,21.0,72,30.06,10.0,NNE,10.4,17.3,N/A,,Partly Cloudy,20,2013-02-07 04:53:00
10:53 PM,26.1,21.9,84,30.07,10.0,North,6.9,-,N/A,,Scattered Clouds,360,2013-02-07 05:53:00
11:53 PM,25.0,21.0,85,30.09,10.0,West,5.8,-,N/A,,Mostly Cloudy,270,2013-02-07 06:53:00